Time,TemperatureF,DewpointF,PressureIn,WindDirection,WindDirectionDegrees,WindSpeedMPH,WindSpeedGustMPH,Humidity,HourlyPrecipIn,Conditions,Clouds,dailyrainin,SolarRadiationWatts/m^2,SoftwareType,DateUTC
2013-05-14 00:21:00,39.0,17.0,-100.00,North,1,2.0,6.0,41,0.00,,,0.08,0.000000,,2013-05-14 08:21:00,
2013-05-14 00:31:00,39.0,17.0,-100.00,North,1,2.0,6.0,41,0.00,,,0.08,0.000000,,2013-05-14 08:31:00,
2013-05-14 00:41:00,39.0,17.0,-100.00,North,1,2.0,6.0,41,0.00,,,0.08,0.000000,,2013-05-14 08:41:00,
2013-05-14 00:51:00,39.0,17.0,-100.00,North,1,2.0,6.0,41,0.00,,,0.08,0.000000,,2013-05-14 08:51:00,
2013-05-14 00:54:00,37.0,18.0,-100.00,North,359,2.0,9.0,45,0.00,,,0.05,0.000000,,2013-05-14 08:54:00,
2013-05-14 01:11:00,37.0,18.0,-100.00,North,359,2.0,9.0,45,0.00,,,0.05,0.000000,,2013-05-14 09:11:00,
2013-05-14 01:21:00,37.0,18.0,-100.00,North,359,2.0,9.0,45,0.00,,,0.05,0.000000,,2013-05-14 09:21:00,
2013-05-14 01:32:00,37.0,18.0,-100.00,North,359,2.0,9.0,45,0.00,,,0.05,0.000000,,2013-05-14 09:32:00,
2013-05-14 01:44:00,37.0,18.0,-100.00,North,359,2.0,9.0,45,0.00,,,0.05,0.000000,,2013-05-14 09:44:00,
2013-05-14 02:14:00,36.0,17.0,-100.00,North,2,3.0,9.0,46,0.00,,,0.02,0.000000,,2013-05-14 10:14:00,
2013-05-14 02:25:00,36.0,17.0,-100.00,North,2,3.0,9.0,46,0.00,,,0.02,0.000000,,2013-05-14 10:25:00,
2013-05-14 02:32:00,36.0,17.0,-100.00,North,2,3.0,9.0,46,0.00,,,0.02,0.000000,,2013-05-14 10:32:00,
2013-05-14 02:42:00,36.0,17.0,-100.00,North,2,3.0,9.0,46,0.00,,,0.02,0.000000,,2013-05-14 10:42:00,
2013-05-14 02:52:00,36.0,17.0,-100.00,North,2,3.0,9.0,46,0.00,,,0.02,0.000000,,2013-05-14 10:52:00,
2013-05-14 03:11:00,36.0,17.0,-100.00,North,8,3.0,9.0,46,0.00,,,-99.99,0.000000,,2013-05-14 11:11:00,
2013-05-14 03:21:00,36.0,17.0,-100.00,North,8,3.0,9.0,46,0.00,,,-99.99,0.000000,,2013-05-14 11:21:00,
2013-05-14 03:32:00,36.0,17.0,-100.00,North,8,3.0,9.0,46,0.00,,,-99.99,0.000000,,2013-05-14 11:32:00,
2013-05-14 03:43:00,36.0,17.0,-100.00,North,8,3.0,9.0,46,0.00,,,-99.99,0.000000,,2013-05-14 11:43:00,
2013-05-14 03:52:00,36.0,17.0,-100.00,North,8,3.0,9.0,46,0.00,,,-99.99,0.000000,,2013-05-14 11:52:00,
2013-05-14 04:21:00,35.0,18.0,-100.00,NNW,327,0.0,5.0,49,0.00,,,0.00,0.000000,,2013-05-14 12:21:00,
2013-05-14 04:32:00,35.0,18.0,-100.00,NNW,327,0.0,5.0,49,0.00,,,0.00,0.000000,,2013-05-14 12:32:00,
2013-05-14 04:42:00,35.0,18.0,-100.00,NNW,327,0.0,5.0,49,0.00,,,0.00,0.000000,,2013-05-14 12:42:00,
2013-05-14 04:51:00,35.0,18.0,-100.00,NNW,327,0.0,5.0,49,0.00,,,0.00,0.000000,,2013-05-14 12:51:00,
2013-05-14 05:22:00,34.0,20.0,-100.00,SSE,159,0.0,4.0,56,0.00,,,0.00,0.000000,,2013-05-14 13:22:00,
2013-05-14 05:32:00,34.0,20.0,-100.00,SSE,159,0.0,4.0,56,0.00,,,0.00,0.000000,,2013-05-14 13:32:00,
2013-05-14 05:41:00,34.0,20.0,-100.00,SSE,159,0.0,4.0,56,0.00,,,0.00,0.000000,,2013-05-14 13:41:00,
2013-05-14 05:52:00,34.0,20.0,-100.00,SSE,159,0.0,4.0,56,0.00,,,0.00,0.000000,,2013-05-14 13:52:00,
2013-05-14 06:22:00,33.0,21.0,-100.00,SW,214,0.0,3.0,60,0.00,,,0.00,2.000000,,2013-05-14 14:22:00,
2013-05-14 06:31:00,33.0,21.0,-100.00,SW,214,0.0,3.0,60,0.00,,,0.00,2.000000,,2013-05-14 14:31:00,
2013-05-14 06:41:00,33.0,21.0,-100.00,SW,214,0.0,3.0,60,0.00,,,0.00,2.000000,,2013-05-14 14:41:00,
2013-05-14 06:52:00,33.0,21.0,-100.00,SW,214,0.0,3.0,60,0.00,,,0.00,2.000000,,2013-05-14 14:52:00,
2013-05-14 07:12:00,34.0,20.0,-100.00,NNW,337,2.0,6.0,55,0.00,,,-99.99,9.000000,,2013-05-14 15:12:00,
2013-05-14 07:21:00,34.0,20.0,-100.00,NNW,337,2.0,6.0,55,0.00,,,-99.99,9.000000,,2013-05-14 15:21:00,
2013-05-14 07:32:00,34.0,20.0,-100.00,NNW,337,2.0,6.0,55,0.00,,,-99.99,9.000000,,2013-05-14 15:32:00,
2013-05-14 07:43:00,34.0,20.0,-100.00,NNW,337,2.0,6.0,55,0.00,,,-99.99,9.000000,,2013-05-14 15:43:00,
2013-05-14 07:53:00,34.0,20.0,-100.00,NNW,337,2.0,6.0,55,0.00,,,-99.99,9.000000,,2013-05-14 15:53:00,
2013-05-14 07:54:00,36.0,19.0,-100.00,North,4,2.0,6.0,50,0.00,,,0.00,43.000000,,2013-05-14 15:54:00,
2013-05-14 08:12:00,36.0,19.0,-100.00,North,4,2.0,6.0,50,0.00,,,0.00,43.000000,,2013-05-14 16:12:00,
2013-05-14 08:23:00,36.0,19.0,-100.00,North,4,2.0,6.0,50,0.00,,,0.00,43.000000,,2013-05-14 16:23:00,
2013-05-14 08:33:00,36.0,19.0,-100.00,North,4,2.0,6.0,50,0.00,,,0.00,43.000000,,2013-05-14 16:33:00,
2013-05-14 08:43:00,36.0,19.0,-100.00,North,4,2.0,6.0,50,0.00,,,0.00,43.000000,,2013-05-14 16:43:00,
2013-05-14 09:13:00,38.0,18.0,-100.00,NNE,18,4.0,8.0,43,0.00,,,0.00,149.000000,,2013-05-14 17:13:00,
2013-05-14 09:24:00,38.0,18.0,-100.00,NNE,18,4.0,8.0,43,0.00,,,0.00,149.000000,,2013-05-14 17:24:00,
2013-05-14 09:32:00,38.0,18.0,-100.00,NNE,18,4.0,8.0,43,0.00,,,0.00,149.000000,,2013-05-14 17:32:00,
2013-05-14 09:43:00,38.0,18.0,-100.00,NNE,18,4.0,8.0,43,0.00,,,0.00,149.000000,,2013-05-14 17:43:00,
2013-05-14 09:52:00,38.0,18.0,-100.00,NNE,18,4.0,8.0,43,0.00,,,0.00,149.000000,,2013-05-14 17:52:00,
2013-05-14 10:22:00,39.0,17.0,-100.00,North,11,2.0,8.0,41,0.00,,,0.00,146.000000,,2013-05-14 18:22:00,
2013-05-14 10:32:00,39.0,17.0,-100.00,North,11,2.0,8.0,41,0.00,,,0.00,146.000000,,2013-05-14 18:32:00,
2013-05-14 10:42:00,39.0,17.0,-100.00,North,11,2.0,8.0,41,0.00,,,0.00,146.000000,,2013-05-14 18:42:00,
2013-05-14 10:52:00,39.0,17.0,-100.00,North,11,2.0,8.0,41,0.00,,,0.00,146.000000,,2013-05-14 18:52:00,
2013-05-14 11:22:00,44.0,19.0,-100.00,NW,315,2.0,6.0,36,0.00,,,0.00,330.000000,,2013-05-14 19:22:00,
2013-05-14 11:31:00,44.0,19.0,-100.00,NW,315,2.0,6.0,36,0.00,,,0.00,330.000000,,2013-05-14 19:31:00,
2013-05-14 11:42:00,44.0,19.0,-100.00,NW,315,2.0,6.0,36,0.00,,,0.00,330.000000,,2013-05-14 19:42:00,
2013-05-14 11:52:00,44.0,19.0,-100.00,NW,315,2.0,6.0,36,0.00,,,0.00,330.000000,,2013-05-14 19:52:00,
2013-05-14 12:11:00,43.0,18.0,-100.00,SE,143,3.0,5.0,36,0.00,,,0.00,470.000000,,2013-05-14 20:11:00,
2013-05-14 12:23:00,43.0,18.0,-100.00,SE,143,3.0,5.0,36,0.00,,,0.00,470.000000,,2013-05-14 20:23:00,
2013-05-14 12:32:00,43.0,18.0,-100.00,SE,143,3.0,5.0,36,0.00,,,0.00,470.000000,,2013-05-14 20:32:00,
2013-05-14 12:44:00,43.0,18.0,-100.00,SE,143,3.0,5.0,36,0.00,,,0.00,470.000000,,2013-05-14 20:44:00,
2013-05-14 12:51:00,43.0,18.0,-100.00,SE,143,3.0,5.0,36,0.00,,,0.00,470.000000,,2013-05-14 20:51:00,
2013-05-14 13:12:00,49.0,23.0,-100.00,SSE,159,2.0,7.0,35,0.00,,,0.00,609.000000,,2013-05-14 21:12:00,
2013-05-14 13:22:00,49.0,23.0,-100.00,SSE,159,2.0,7.0,35,0.00,,,0.00,609.000000,,2013-05-14 21:22:00,
2013-05-14 13:33:00,49.0,23.0,-100.00,SSE,159,2.0,7.0,35,0.00,,,0.00,609.000000,,2013-05-14 21:33:00,
2013-05-14 13:42:00,49.0,23.0,-100.00,SSE,159,2.0,7.0,35,0.00,,,0.00,609.000000,,2013-05-14 21:42:00,
2013-05-14 13:52:00,49.0,23.0,-100.00,SSE,159,2.0,7.0,35,0.00,,,0.00,609.000000,,2013-05-14 21:52:00,
2013-05-14 13:54:00,51.0,16.0,-100.00,North,5,4.0,10.0,25,0.00,,,0.00,820.000000,,2013-05-14 21:54:00,
2013-05-14 14:13:00,51.0,16.0,-100.00,North,5,4.0,10.0,25,0.00,,,0.00,820.000000,,2013-05-14 22:13:00,
2013-05-14 14:24:00,51.0,16.0,-100.00,North,5,4.0,10.0,25,0.00,,,0.00,820.000000,,2013-05-14 22:24:00,
2013-05-14 14:34:00,51.0,16.0,-100.00,North,5,4.0,10.0,25,0.00,,,0.00,820.000000,,2013-05-14 22:34:00,
2013-05-14 14:45:00,51.0,16.0,-100.00,North,5,4.0,10.0,25,0.00,,,0.00,820.000000,,2013-05-14 22:45:00,
2013-05-14 15:21:00,50.0,12.0,-100.00,North,3,2.0,8.0,21,0.00,,,0.00,713.000000,,2013-05-14 23:21:00,
2013-05-14 15:31:00,50.0,12.0,-100.00,North,3,2.0,8.0,21,0.00,,,0.00,713.000000,,2013-05-14 23:31:00,
2013-05-14 15:44:00,50.0,12.0,-100.00,North,3,2.0,8.0,21,0.00,,,0.00,713.000000,,2013-05-14 23:44:00,
2013-05-14 15:52:00,50.0,12.0,-100.00,North,3,2.0,8.0,21,0.00,,,0.00,713.000000,,2013-05-14 23:52:00,
2013-05-14 16:21:00,51.0,14.0,-100.00,NNW,333,2.0,8.0,22,0.00,,,0.00,694.000000,,2013-05-15 00:21:00,
2013-05-14 16:32:00,51.0,14.0,-100.00,NNW,333,2.0,8.0,22,0.00,,,0.00,694.000000,,2013-05-15 00:32:00,
2013-05-14 16:41:00,51.0,14.0,-100.00,NNW,333,2.0,8.0,22,0.00,,,0.00,694.000000,,2013-05-15 00:41:00,
2013-05-14 16:51:00,51.0,14.0,-100.00,NNW,333,2.0,8.0,22,0.00,,,0.00,694.000000,,2013-05-15 00:51:00,
2013-05-14 17:21:00,53.0,19.0,-100.00,East,93,2.0,11.0,26,0.00,,,0.00,543.000000,,2013-05-15 01:21:00,
2013-05-14 17:31:00,53.0,19.0,-100.00,East,93,2.0,11.0,26,0.00,,,0.00,543.000000,,2013-05-15 01:31:00,
2013-05-14 17:42:00,53.0,19.0,-100.00,East,93,2.0,11.0,26,0.00,,,0.00,543.000000,,2013-05-15 01:42:00,
2013-05-14 17:52:00,53.0,19.0,-100.00,East,93,2.0,11.0,26,0.00,,,0.00,543.000000,,2013-05-15 01:52:00,
2013-05-14 18:11:00,49.0,15.0,-100.00,West,278,2.0,7.0,25,0.00,,,0.00,243.000000,,2013-05-15 02:11:00,
2013-05-14 18:21:00,49.0,15.0,-100.00,West,278,2.0,7.0,25,0.00,,,0.00,243.000000,,2013-05-15 02:21:00,
2013-05-14 18:31:00,49.0,15.0,-100.00,West,278,2.0,7.0,25,0.00,,,0.00,243.000000,,2013-05-15 02:31:00,
2013-05-14 18:42:00,49.0,15.0,-100.00,West,278,2.0,7.0,25,0.00,,,0.00,243.000000,,2013-05-15 02:42:00,
2013-05-14 18:51:00,49.0,15.0,-100.00,West,278,2.0,7.0,25,0.00,,,0.00,243.000000,,2013-05-15 02:51:00,
2013-05-14 19:12:00,47.0,16.0,-100.00,WSW,257,1.0,8.0,28,0.00,,,0.00,157.000000,,2013-05-15 03:12:00,
2013-05-14 19:21:00,47.0,16.0,-100.00,WSW,257,1.0,8.0,28,0.00,,,0.00,157.000000,,2013-05-15 03:21:00,
2013-05-14 19:33:00,47.0,16.0,-100.00,WSW,257,1.0,8.0,28,0.00,,,0.00,157.000000,,2013-05-15 03:33:00,
2013-05-14 19:44:00,47.0,16.0,-100.00,WSW,257,1.0,8.0,28,0.00,,,0.00,157.000000,,2013-05-15 03:44:00,
2013-05-14 19:53:00,47.0,16.0,-100.00,WSW,257,1.0,8.0,28,0.00,,,0.00,157.000000,,2013-05-15 03:53:00,
2013-05-14 20:24:00,47.0,17.0,-100.00,West,261,2.0,6.0,30,0.00,,,0.00,127.000000,,2013-05-15 04:24:00,
2013-05-14 20:33:00,47.0,17.0,-100.00,West,261,2.0,6.0,30,0.00,,,0.00,127.000000,,2013-05-15 04:33:00,
2013-05-14 20:42:00,47.0,17.0,-100.00,West,261,2.0,6.0,30,0.00,,,0.00,127.000000,,2013-05-15 04:42:00,
2013-05-14 20:52:00,47.0,17.0,-100.00,West,261,2.0,6.0,30,0.00,,,0.00,127.000000,,2013-05-15 04:52:00,
2013-05-14 21:22:00,45.0,15.0,-100.00,SW,233,4.0,9.0,30,0.00,,,0.00,156.000000,,2013-05-15 05:22:00,
2013-05-14 21:32:00,45.0,15.0,-100.00,SW,233,4.0,9.0,30,0.00,,,0.00,156.000000,,2013-05-15 05:32:00,
2013-05-14 21:42:00,45.0,15.0,-100.00,SW,233,4.0,9.0,30,0.00,,,0.00,156.000000,,2013-05-15 05:42:00,
2013-05-14 21:52:00,45.0,15.0,-100.00,SW,233,4.0,9.0,30,0.00,,,0.00,156.000000,,2013-05-15 05:52:00,
2013-05-14 22:11:00,40.0,19.0,-100.00,SW,233,2.0,9.0,42,0.00,,,0.00,27.000000,,2013-05-15 06:11:00,
2013-05-14 22:21:00,40.0,19.0,-100.00,SW,233,2.0,9.0,42,0.00,,,0.00,27.000000,,2013-05-15 06:21:00,
2013-05-14 22:31:00,40.0,19.0,-100.00,SW,233,2.0,9.0,42,0.00,,,0.00,27.000000,,2013-05-15 06:31:00,
2013-05-14 22:41:00,40.0,19.0,-100.00,SW,233,2.0,9.0,42,0.00,,,0.00,27.000000,,2013-05-15 06:41:00,
2013-05-14 22:51:00,40.0,19.0,-100.00,SW,233,2.0,9.0,42,0.00,,,0.00,27.000000,,2013-05-15 06:51:00,
2013-05-14 23:11:00,35.0,21.0,-100.00,WSW,257,2.0,4.0,57,0.00,,,0.00,7.000000,,2013-05-15 07:11:00,
2013-05-14 23:21:00,35.0,21.0,-100.00,WSW,257,2.0,4.0,57,0.00,,,0.00,7.000000,,2013-05-15 07:21:00,
2013-05-14 23:32:00,35.0,21.0,-100.00,WSW,257,2.0,4.0,57,0.00,,,0.00,7.000000,,2013-05-15 07:32:00,
2013-05-14 23:41:00,35.0,21.0,-100.00,WSW,257,2.0,4.0,57,0.00,,,0.00,7.000000,,2013-05-15 07:41:00,
2013-05-14 23:52:00,35.0,21.0,-100.00,WSW,257,2.0,4.0,57,0.00,,,0.00,7.000000,,2013-05-15 07:52:00,